EN

Hourly Weather Chinavita

Today, 27 October, Tuesday

Time Temperature Precipitation Wind Pressure Humidity
00:00 +16°C° 0 mm 1 mps 613 mmHg 96%
01:00 +15°C° 0 mm 1 mps 613 mmHg 96%
02:00 +15°C° 0 mm 1 mps 613 mmHg 95%
03:00 +15°C° 0 mm 1 mps 612 mmHg 95%
04:00 +15°C° 0 mm 1 mps 612 mmHg 95%
05:00 +16°C° 0 mm 1 mps 613 mmHg 93%
06:00 +18°C° 0 mm 1 mps 614 mmHg 90%
07:00 +19°C° 0 mm 1 mps 615 mmHg 88%
08:00 +22°C° 0.1 mm 1 mps 616 mmHg 77%
09:00 +24°C° 0.1 mm 1 mps 617 mmHg 66%
10:00 +27°C° 0.1 mm 2 mps 618 mmHg 55%
11:00 +27°C° 0.4 mm 2 mps 617 mmHg 58%
12:00 +27°C° 0.4 mm 2 mps 616 mmHg 61%
13:00 +27°C° 0.4 mm 2 mps 615 mmHg 65%
14:00 +25°C° 1.4 mm 1 mps 614 mmHg 73%
15:00 +24°C° 1.4 mm 1 mps 613 mmHg 81%
16:00 +22°C° 1.4 mm 1 mps 612 mmHg 89%
17:00 +22°C° 1.4 mm 1 mps 612 mmHg 92%
18:00 +19°C° 1.4 mm 0 mps 613 mmHg 95%
19:00 +18°C° 1.4 mm 0 mps 613 mmHg 98%
20:00 +18°C° 0.5 mm 0 mps 613 mmHg 98%
21:00 +17°C° 0.5 mm 0 mps 614 mmHg 97%
22:00 +19°C° 0.5 mm 1 mps 614 mmHg 97%
23:00 +19°C° 0.2 mm 1 mps 613 mmHg 96%

Tomorrow, 28 October, Wednesday

Time Temperature Precipitation Wind Pressure Humidity
00:00 +18°C° 0.2 mm 1 mps 613 mmHg 96%
01:00 +18°C° 0.2 mm 1 mps 613 mmHg 96%
02:00 +16°C° 0.1 mm 1 mps 612 mmHg 96%
03:00 +16°C° 0.1 mm 1 mps 612 mmHg 95%
04:00 +16°C° 0.1 mm 1 mps 612 mmHg 95%
05:00 +16°C° 0 mm 1 mps 613 mmHg 94%
06:00 +18°C° 0 mm 1 mps 613 mmHg 92%
07:00 +19°C° 0 mm 1 mps 614 mmHg 91%
08:00 +21°C° 0.1 mm 1 mps 615 mmHg 82%
09:00 +23°C° 0.1 mm 1 mps 616 mmHg 73%
10:00 +25°C° 0.1 mm 1 mps 617 mmHg 64%
11:00 +25°C° 1.2 mm 1 mps 616 mmHg 70%
12:00 +25°C° 1.2 mm 1 mps 615 mmHg 76%
13:00 +24°C° 1.2 mm 1 mps 614 mmHg 83%
14:00 +23°C° 1.6 mm 1 mps 613 mmHg 87%
15:00 +22°C° 1.6 mm 1 mps 612 mmHg 91%
16:00 +21°C° 1.6 mm 1 mps 612 mmHg 94%
17:00 +19°C° 1.1 mm 0 mps 612 mmHg 95%
18:00 +18°C° 1.1 mm 0 mps 612 mmHg 96%
19:00 +17°C° 1.1 mm 0 mps 613 mmHg 96%
20:00 +19°C° 2 mm 1 mps 613 mmHg 96%
21:00 +19°C° 2 mm 1 mps 614 mmHg 96%
22:00 +19°C° 2 mm 1 mps 614 mmHg 97%
23:00 +18°C° 2.7 mm 1 mps 614 mmHg 96%

Day after tomorrow, 29 October, Thursday

Time Temperature Precipitation Wind Pressure Humidity
00:00 +18°C° 2.7 mm 1 mps 613 mmHg 96%
01:00 +16°C° 2.7 mm 1 mps 613 mmHg 96%
02:00 +16°C° 0.3 mm 1 mps 613 mmHg 95%
03:00 +16°C° 0.3 mm 1 mps 613 mmHg 95%
04:00 +16°C° 0.3 mm 1 mps 613 mmHg 94%
05:00 +16°C° 0.1 mm 1 mps 613 mmHg 93%
06:00 +18°C° 0.1 mm 1 mps 614 mmHg 92%
07:00 +18°C° 0.1 mm 1 mps 614 mmHg 90%
08:00 +20°C° 0 mm 1 mps 615 mmHg 81%
09:00 +22°C° 0 mm 1 mps 616 mmHg 72%
10:00 +24°C° 0 mm 1 mps 617 mmHg 63%
11:00 +25°C° 0.2 mm 1 mps 616 mmHg 60%
12:00 +26°C° 0.2 mm 1 mps 616 mmHg 58%
13:00 +27°C° 0.2 mm 1 mps 615 mmHg 56%
14:00 +25°C° 1 mm 1 mps 614 mmHg 67%
15:00 +24°C° 1 mm 1 mps 613 mmHg 78%
16:00 +22°C° 1 mm 1 mps 613 mmHg 90%
17:00 +19°C° 0.9 mm 0 mps 613 mmHg 92%
18:00 +18°C° 0.9 mm 0 mps 613 mmHg 94%
19:00 +17°C° 0.9 mm 0 mps 613 mmHg 96%
20:00 +17°C° 0.5 mm 0 mps 614 mmHg 96%
21:00 +19°C° 0.5 mm 1 mps 614 mmHg 95%
22:00 +19°C° 0.5 mm 1 mps 614 mmHg 94%
23:00 +19°C° 0.1 mm 1 mps 614 mmHg 94%

30 October, Friday

Time Temperature Precipitation Wind Pressure Humidity
00:00 +18°C° 0.1 mm 1 mps 614 mmHg 94%
01:00 +18°C° 0.1 mm 1 mps 613 mmHg 94%
02:00 +18°C° 0.1 mm 1 mps 613 mmHg 94%
03:00 +18°C° 0.1 mm 1 mps 613 mmHg 94%
04:00 +16°C° 0.1 mm 1 mps 613 mmHg 94%
05:00 +18°C° 0 mm 1 mps 614 mmHg 93%
06:00 +18°C° 0 mm 1 mps 614 mmHg 91%
07:00 +19°C° 0 mm 1 mps 615 mmHg 90%
08:00 +21°C° 0.1 mm 1 mps 616 mmHg 80%
09:00 +24°C° 0.1 mm 1 mps 617 mmHg 71%
10:00 +26°C° 0.1 mm 1 mps 618 mmHg 62%
11:00 +25°C° 1.5 mm 1 mps 617 mmHg 70%
12:00 +25°C° 1.5 mm 1 mps 616 mmHg 78%
13:00 +24°C° 1.5 mm 1 mps 615 mmHg 86%
14:00 +23°C° 1.7 mm 1 mps 614 mmHg 88%
15:00 +22°C° 1.7 mm 1 mps 614 mmHg 90%
16:00 +22°C° 1.7 mm 1 mps 613 mmHg 92%
17:00 +19°C° 0.6 mm 0 mps 613 mmHg 94%
18:00 +18°C° 0.6 mm 0 mps 614 mmHg 95%
19:00 +17°C° 0.6 mm 0 mps 614 mmHg 97%
20:00 +17°C° 0.1 mm 0 mps 614 mmHg 96%
21:00 +19°C° 0.1 mm 1 mps 614 mmHg 95%
22:00 +18°C° 0.1 mm 1 mps 614 mmHg 95%
23:00 +18°C° 0.1 mm 1 mps 614 mmHg 95%

31 October, Saturday

Time Temperature Precipitation Wind Pressure Humidity
00:00 +18°C° 0.1 mm 1 mps 614 mmHg 95%
01:00 +16°C° 0.1 mm 1 mps 614 mmHg 95%
02:00 +16°C° 0.1 mm 1 mps 614 mmHg 95%
03:00 +16°C° 0.1 mm 1 mps 614 mmHg 94%
04:00 +16°C° 0.1 mm 1 mps 614 mmHg 94%
05:00 +18°C° 0 mm 1 mps 614 mmHg 93%
06:00 +18°C° 0 mm 1 mps 615 mmHg 92%
07:00 +19°C° 0 mm 1 mps 615 mmHg 90%
08:00 +21°C° 0.2 mm 1 mps 616 mmHg 84%
09:00 +23°C° 0.2 mm 1 mps 617 mmHg 77%
10:00 +25°C° 0.2 mm 1 mps 618 mmHg 70%
11:00 +24°C° 1.2 mm 1 mps 617 mmHg 73%
12:00 +24°C° 1.2 mm 1 mps 616 mmHg 76%
13:00 +24°C° 1.2 mm 1 mps 615 mmHg 79%
14:00 +23°C° 1.3 mm 1 mps 614 mmHg 84%
15:00 +22°C° 1.3 mm 1 mps 614 mmHg 88%
16:00 +21°C° 1.3 mm 1 mps 613 mmHg 93%
17:00 +20°C° 0.7 mm 1 mps 613 mmHg 95%
18:00 +18°C° 0.7 mm 0 mps 614 mmHg 96%
19:00 +17°C° 0.7 mm 0 mps 614 mmHg 98%
20:00 +17°C° 0.8 mm 0 mps 614 mmHg 98%
21:00 +17°C° 0.8 mm 0 mps 615 mmHg 97%
22:00 +16°C° 0.8 mm 0 mps 615 mmHg 97%
23:00 +16°C° 0.4 mm 0 mps 615 mmHg 96%

1 November, Sunday

Time Temperature Precipitation Wind Pressure Humidity
00:00 +16°C° 0.4 mm 0 mps 614 mmHg 96%
01:00 +16°C° 0.4 mm 0 mps 614 mmHg 95%
02:00 +15°C° 0 mm 0 mps 614 mmHg 94%
03:00 +15°C° 0 mm 0 mps 614 mmHg 94%
04:00 +15°C° 0 mm 0 mps 614 mmHg 93%
05:00 +16°C° 0 mm 0 mps 614 mmHg 92%
06:00 +16°C° 0 mm 0 mps 615 mmHg 91%
07:00 +16°C° 0 mm 0 mps 615 mmHg 90%
08:00 +21°C° 0 mm 1 mps 616 mmHg 80%
09:00 +23°C° 0 mm 1 mps 617 mmHg 69%
10:00 +25°C° 0 mm 1 mps 618 mmHg 59%
11:00 +24°C° 0.4 mm 2 mps 617 mmHg 66%
12:00 +24°C° 0.4 mm 2 mps 616 mmHg 72%
13:00 +23°C° 0.4 mm 2 mps 615 mmHg 79%
14:00 +21°C° 1 mm 2 mps 614 mmHg 84%
15:00 +22°C° 1 mm 1 mps 613 mmHg 90%
16:00 +21°C° 1 mm 1 mps 613 mmHg 95%
17:00 +20°C° 0.6 mm 1 mps 613 mmHg 96%
18:00 +17°C° 0.6 mm 0 mps 613 mmHg 97%
19:00 +17°C° 0.6 mm 0 mps 613 mmHg 98%
20:00 +16°C° 0.7 mm 0 mps 614 mmHg 97%
21:00 +16°C° 0.7 mm 0 mps 614 mmHg 97%
22:00 +16°C° 0.7 mm 0 mps 614 mmHg 96%
23:00 +16°C° 0.3 mm 0 mps 614 mmHg 96%
Show more

We Need Your Consent

Meteoprog and our Service Providers may store and access personal data such as cookies, device identifiers or other similar technologies on your device and process such data to personalise content and ads, as well as provide social media features and to analyse the traffic.

  • Store and/or access information on your device

    Cookies, device identifiers or other information can be stored or accessed on your device for the purposes indicated above.

  • Personalised ads and content, ad and content measurement, audience insights, and products development

    Ads and content can be personalised based on a profile. More data can be added to better personalise ads and content. Ad and content performance can be measured. Insights about the audience who saw the ads and content can be derived. Such data can be used to develop or improve user’s experience, systems and software.

By clicking ‘I Agree’ you will allow the use of indicated cookies, device identifiers, web beacons or other similar technologies. Your settings can be changed in the browser on your device.

For certain purposes, legitimate interests may be relied on, rather than consent. You can read more about this in our Privacy and Cookie Policy.